Weather in Luboml

Ukraine / Volyn Oblast     51°13′25″N   24°01′58″E
temp.,
°C
wind,
m/s
gust,
m/s
humid.,
%
clouds,
%
prec.,
mm/h
press.,
hPa
HPBL,
m
26 february, fri
fri2623:00+6sw47860 0.0 1027112
02:00+5wsw510910 0.0 1026215
05:00+4wsw410900 0.0 1025204
08:00+4wsw511930 0.0 1024235
11:00+8w598725 0.0 1024376
14:00+10wnw587957 0.0 1023583
17:00+8nw588994 0.4 1022505
20:00+6wnw6118197 1.2 1022546
27 february, sat
sat2723:00+5wnw61383100 0.0 1022733
02:00+4wnw61386100 0.0 1023705
05:00+4wnw6128090 0.1 1021846
08:00+3wnw8148795 0.1 1021824
11:00+4nw81282100 0.1 10221000
14:00+6nw9126685 0.1 10231439
17:00+5nw71268100 0.1 10241215
20:00+4nw61274100 0.1 1025980
28 february, sun
sun2823:00+2nnw51181100 0.0 1027623
02:00+1nnw5995100 0.1 1029456
05:000nnw489286 0.1 1029492
08:000nnw488285 0.1 1031737
11:00+1nw4677100 0.1 1031745
14:00+3nw577095 0.1 1032821
17:00+4nw586247 0.0 1031811
20:00+1nw497824 0.0 1032233
1 march, mon
mon123:000wnw49840 0.0 1032233
02:00+1nw498623 0.0 1032312
05:00+1wnw498887 0.0 1032303
08:00+1nw588493 0.0 1032326
11:00+3nw588091 0.0 1033382
14:00+6nnw687194 0.0 1033813
17:00+6nnw377297 0.0 1033339
20:00+4wnw348372 0.0 103476
2 march, tue
tue223:00+2wnw369119 0.0 1035101
02:00+1wnw349110 0.0 103579
05:00+1w489214 0.0 1035150
08:00+1w5109042 0.0 1034252
11:00+7w6106432 0.0 1034540
14:00+10wnw7115316 0.0 1033765
17:00+9wnw611570 0.0 1031635
20:00+5wnw411760 0.0 1032261